SCP
0 -2 -3 -2 -2 -1 -1 -1 -1 -2 -2 -1 -1 -1 -1 -0 -0 -0 -0 -0 -0 0 -0 -0 -0 -0 -0 -0 -0 0 0 0 0 0 0 0 0 0 0 0 0 0 0
-0 -1 -2 -2 -2 -1 -1 -1 -1 -1 -2 -1 -1 -1 -1 -0 -0 -0 -0 -0 -0 -0 -0 -0 -0 -0 -0 -0 -0 0 0 0 0 0 0 0 0 0 0 0 0 0 0
-0 -1 -2 -2 -1 -1 -1 -1 -1 -1 -1 -1 -1 -1 -1 -0 -0 -0 -0 -0 -0 -0 -0 -0 -0 -0 -0 -0 -0 0 0 0 0 0 0 0 0 0 0 0 0 0 0
-0 -0 -1 -2 -1 -1 -1 -1 -1 -1 -1 -1 -1 -1 -1 -0 -0 -0 -0 -0 -0 -0 -0 -0 -0 -0 -0 -0 -0 0 0 0 0 0 0 0 0 0 0 0 0 0 0
-0 -1 -0 -1 -1 -1 -1 -1 -1 -1 -1 -1 -1 -1 -1 -0 -0 -0 -0 -0 -0 -0 -0 -0 -0 -0 -0 -0 -0 0 0 0 0 0 0 0 0 0 0 0 0 0 0
1 1 -1 -0 -0 -1 -1 -1 -0 -1 -1 -1 -0 -0 -0 -0 -0 -0 -0 -0 -0 -0 -0 -0 -0 -0 -0 -0 0 0 0 0 0 0 0 0 0 0 0 0 0 0 0
2 1 0 -0 0 -0 -0 -0 -0 -0 -0 -0 -0 -0 -0 -0 -0 -0 -0 -0 -0 -0 -0 -0 -0 -0 -0 0 0 0 0 0 0 0 0 0 0 1 1 0 0 0 0
2 2 1 0 0 0 -0 -0 -0 -0 -0 -0 -0 -0 -0 -0 -0 -0 -0 -0 -0 -0 -0 -0 -0 0 -0 0 0 0 0 0 0 0 0 0 1 0 0 0 0 0 0
3 2 1 1 1 0 0 0 -0 -0 -0 -0 -0 -0 -0 -0 -0 -0 -0 -0 -0 -0 -0 0 0 0 0 0 0 0 0 0 0 0 0 1 1 0 0 0 0 0 0
2 2 1 1 1 1 1 0 0 0 0 -0 -0 0 0 0 0 -0 -0 -0 -0 -0 0 0 0 0 0 0 0 0 0 0 0 0 0 1 1 0 0 0 0 0 0
2 2 1 1 1 1 1 1 0 0 0 0 0 0 0 0 0 0 0 0 0 0 0 0 0 0 0 0 0 0 0 0 0 0 0 1 0 0 0 0 0 0 0
0 2 1 1 1 1 1 1 1 1 1 0 0 0 0 0 0 0 0 0 0 0 0 0 0 0 0 0 0 0 0 0 0 0 1 1 0 0 0 0 0 0 0
0 1 2 1 1 1 1 0 0 1 1 0 0 0 0 0 0 0 0 0 0 0 0 0 0 0 0 0 0 0 0 0 0 1 0 0 0 0 0 0 0 0 0
0 0 2 1 1 0 1 0 0 0 0 0 0 0 0 0 0 0 0 0 0 0 0 0 0 0 0 0 0 0 0 0 0 1 0 0 0 0 0 0 0 0 0
0 0 2 1 1 1 0 0 0 0 0 0 0 0 0 0 0 0 0 0 0 0 0 0 0 0 0 0 0 0 0 0 0 0 0 0 0 0 0 0 0 0 0
-0 0 1 1 1 1 0 0 1 0 0 0 0 0 0 0 0 0 0 0 0 0 0 0 0 0 0 0 0 0 0 0 0 0 0 0 0 0 0 0 0 0 0
-0 0 1 1 1 1 1 1 1 0 0 0 0 0 0 0 0 0 0 0 0 0 0 0 0 0 0 0 0 0 0 0 0 0 0 0 0 0 0 0 0 0 0
0 0 1 2 2 1 1 1 1 0 0 0 0 0 0 0 0 0 0 0 0 0 0 0 0 0 0 0 0 0 0 0 0 0 0 0 0 0 0 0 0 0 0
0 0 1 2 1 2 0 1 0 0 0 0 0 0 0 0 0 0 0 0 0 0 0 0 0 0 0 0 0 0 0 0 0 0 0 0 0 0 0 0 0 0 0
1 0 1 3 1 0 1 0 0 0 0 0 0 0 0 0 0 0 0 0 0 0 0 0 0 0 0 0 0 0 0 0 0 0 0 0 0 0 0 0 0 0 0
1 2 1 2 3 1 1 0 0 0 0 0 0 0 0 0 0 0 0 0 0 0 0 0 0 0 0 0 0 0 0 0 0 0 0 0 0 0 0 0 0 0 0
1 1 1 1 2 1 1 0 0 0 0 0 0 0 0 0 0 0 0 0 0 0 0 0 0 0 0 0 0 0 0 0 0 0 0 0 0 0 0 0 0 0 0
1 1 1 1 1 1 1 0 0 0 0 0 0 0 0 0 0 0 0 0 0 0 0 0 0 0 0 0 0 0 0 0 0 0 0 0 0 0 0 0 0 0 0
1 2 1 2 1 1 0 0 0 0 0 0 0 0 0 1 0 0 0 0 0 0 0 0 0 0 0 0 0 0 0 0 0 0 0 0 0 0 0 0 0 0 0
0 3 2 2 2 1 1 1 0 0 0 0 0 1 1 1 0 0 0 0 0 0 0 0 0 0 0 0 0 0 0 0 0 0 0 0 0 0 0 0 0 0 0
1 1 4 4 2 2 1 1 1 0 1 1 1 1 1 0 0 0 0 0 0 0 0 0 0 0 0 0 0 0 0 0 0 0 0 0 0 0 0 0 0 0 0
Wind_Speed_500mb
65 69 72 68 68 61 52 43 41 46 51 48 41 38 40 44 49 52 52 52 51 47 43 40 36 33 29 28 28 28 27 27 26 22 20 23 26 27 29 29 28 26 23
66 74 74 72 71 65 55 46 42 50 53 50 44 43 42 44 47 50 51 50 48 42 37 35 32 28 26 27 28 26 24 22 17 12 12 16 20 22 24 26 26 23 24
65 76 76 74 70 65 58 50 44 49 53 52 49 47 46 45 45 50 49 47 44 37 34 31 27 24 25 26 26 23 21 17 12 8 10 10 13 16 20 24 27 26 24
67 76 78 77 72 66 59 52 47 47 50 52 52 52 49 46 45 49 47 44 40 36 34 30 26 23 23 23 23 21 20 13 8 8 6 7 9 14 19 24 27 26 25
68 74 76 76 74 69 61 53 47 48 51 52 55 54 52 48 47 49 47 43 37 34 33 29 25 21 20 20 20 20 18 12 7 0 1 3 6 12 17 24 28 29 27
63 70 73 73 70 67 63 55 48 48 51 54 55 54 53 50 49 50 46 41 37 34 30 27 24 20 17 19 19 19 17 15 7 2 3 4 5 11 17 24 28 28 29
63 72 74 73 70 65 60 55 49 48 49 52 55 54 53 52 51 50 45 39 36 32 27 23 22 21 18 18 19 18 15 15 9 1 3 3 6 12 20 26 29 31 32
67 77 76 74 70 65 60 54 50 49 48 51 54 54 51 51 51 51 45 41 36 28 23 20 21 22 20 18 17 16 14 11 8 4 2 3 7 13 21 25 29 33 37
67 77 76 73 68 64 60 55 49 48 49 51 53 52 50 50 51 50 46 40 34 27 23 20 20 21 19 18 16 14 11 7 7 6 1 2 8 16 21 23 28 35 41
65 70 74 75 71 65 60 55 49 46 47 50 50 49 49 50 50 48 44 39 33 28 24 21 21 20 19 17 16 12 11 6 3 1 4 2 7 13 17 24 31 40 46
45 53 61 70 71 69 63 56 52 48 46 45 46 48 49 50 48 46 41 37 32 27 24 22 21 20 19 15 12 10 10 5 3 3 2 1 7 12 17 25 37 42 47
41 48 51 58 69 70 68 63 56 54 52 49 48 48 47 46 44 41 38 34 30 26 23 21 20 21 21 16 11 9 7 3 5 4 4 5 9 13 18 30 39 47 49
44 53 51 55 61 71 71 71 66 59 53 49 47 47 47 45 42 39 37 33 27 22 19 18 19 24 24 14 8 6 6 4 4 5 10 7 12 13 21 32 42 47 46
34 57 60 58 62 66 73 73 69 65 61 56 51 49 49 47 42 38 33 28 22 20 18 18 21 24 21 14 10 6 2 6 13 11 6 18 13 16 22 33 42 44 39
35 47 72 69 68 64 74 75 71 69 66 57 53 49 48 45 41 37 31 26 22 19 19 21 22 22 16 12 9 8 5 16 12 7 19 17 18 16 24 31 36 36 35
24 49 60 67 65 66 73 75 74 71 66 60 54 51 49 46 39 33 29 25 22 20 22 21 20 18 13 11 6 10 16 13 13 12 20 16 15 16 22 28 32 34 30
20 37 54 62 69 74 73 76 75 72 68 63 56 53 49 46 40 33 27 24 23 20 19 17 15 12 12 9 7 15 11 19 18 16 12 20 14 12 18 28 32 26 27
32 23 40 46 57 74 72 76 76 74 69 62 56 52 48 46 40 36 30 25 18 15 14 13 14 12 14 17 14 12 15 18 17 17 16 16 9 11 19 25 22 21 23
30 26 22 67 48 59 81 78 79 76 69 63 58 52 48 46 41 38 36 27 22 17 13 13 15 11 12 13 15 16 13 17 19 17 17 14 10 11 13 14 17 19 22
32 22 19 68 67 78 75 84 83 79 72 63 58 51 48 49 45 38 37 32 21 19 15 15 17 18 17 16 12 11 14 20 17 16 16 13 12 11 10 7 10 15 18
32 41 29 67 71 86 90 93 91 84 74 66 59 51 50 51 47 41 36 32 23 19 18 21 19 18 19 18 15 6 2 7 12 15 15 15 16 16 13 8 9 12 14
33 39 58 58 78 85 92 95 93 82 75 66 58 54 51 54 49 40 35 27 22 22 22 22 18 19 22 19 12 12 10 8 16 17 14 16 17 21 20 16 13 14 14
34 38 57 63 61 67 93 96 86 76 77 70 65 59 59 57 49 42 31 23 25 21 21 19 21 22 22 16 20 16 10 12 19 15 14 16 21 22 20 22 22 20 22
38 44 44 59 58 57 82 87 85 83 83 74 67 60 60 60 53 47 34 27 24 26 26 23 26 24 23 18 19 22 25 14 11 10 16 14 12 12 13 20 25 22 23
51 48 44 45 59 60 69 78 79 80 79 75 75 65 66 61 56 47 35 31 23 29 28 25 25 24 19 15 14 13 10 10 12 13 13 12 3 7 8 11 14 19 28
65 65 50 53 55 64 73 80 84 87 86 80 77 79 73 69 64 49 41 33 25 31 30 22 21 20 13 15 14 11 11 11 12 6 12 17 14 7 8 13 20 27 36
Wind_Direction_500mb
179 182 180 179 178 179 189 193 187 180 172 169 170 168 159 157 159 159 154 151 150 149 148 149 147 144 134 128 127 126 123 126 122 107 90 74 64 55 41 38 33 31 23
178 180 180 179 179 180 190 191 187 182 179 179 182 173 165 162 162 161 157 154 155 152 151 150 147 142 136 132 131 132 128 133 125 105 93 79 65 50 40 32 30 27 21
183 177 180 179 181 184 189 188 187 185 183 182 182 175 170 167 164 165 160 158 160 158 156 153 148 146 141 139 140 140 142 144 125 94 80 85 64 47 35 24 20 15 9
185 180 182 181 182 186 187 187 187 186 186 185 183 177 174 171 169 168 163 162 163 161 159 154 150 149 145 143 145 149 148 147 125 99 85 83 60 38 24 14 8 3 360
186 184 184 182 184 187 187 187 186 184 186 186 184 180 177 175 173 169 166 165 164 161 156 152 150 147 148 148 155 160 161 164 150 342 255 123 63 32 16 3 357 359 353
188 189 187 185 186 188 188 188 187 185 185 186 186 184 180 177 175 171 169 168 167 165 161 157 153 151 157 157 167 171 178 184 188 107 127 168 61 27 4 356 354 355 353
190 191 189 187 188 190 190 189 188 186 184 185 185 184 182 178 175 172 171 170 167 165 158 156 154 153 164 168 176 182 191 194 198 160 130 129 48 14 358 355 355 355 351
193 189 189 188 189 192 192 191 189 186 184 183 184 183 182 179 176 174 175 174 170 169 164 158 153 156 171 179 183 184 189 196 211 212 123 70 30 2 353 357 357 353 350
193 190 188 189 190 193 194 193 191 187 185 183 185 184 182 181 178 178 180 181 180 181 170 162 159 167 176 183 185 175 168 152 139 148 199 345 12 355 353 353 356 353 349
189 193 192 190 192 194 194 194 192 190 189 185 186 186 185 183 182 183 185 185 188 185 174 170 172 175 178 179 172 169 154 141 107 326 277 20 338 337 347 352 354 353 345
190 192 196 195 195 194 194 192 191 191 191 189 186 188 187 185 184 186 189 190 190 186 182 179 181 175 176 172 163 149 153 129 16 348 228 301 307 326 342 354 354 351 348
196 200 202 200 199 197 195 193 192 192 190 191 190 189 188 187 186 187 188 187 189 188 185 184 184 172 170 158 153 162 174 175 42 20 203 252 314 326 337 354 357 354 349
228 208 202 205 207 200 199 195 193 194 194 194 193 192 190 190 190 188 187 187 190 192 190 186 176 173 172 169 178 178 171 213 209 245 231 303 296 323 343 355 356 349 349
255 226 212 205 210 207 203 202 198 195 196 195 195 197 195 194 193 192 188 191 193 192 187 174 170 166 170 169 186 185 204 270 242 228 257 299 292 318 342 347 346 344 347
236 237 217 212 209 211 208 206 203 202 201 200 200 200 202 200 199 195 193 195 196 186 172 166 164 164 164 180 205 201 261 262 239 232 301 286 286 314 332 344 340 348 354
245 209 216 219 214 214 215 210 209 208 206 203 203 205 204 202 202 199 200 197 193 179 168 167 164 168 166 167 209 246 254 225 248 293 294 268 277 314 337 345 350 354 358
248 229 223 222 213 220 219 213 212 211 208 206 206 207 205 201 199 198 198 197 189 184 180 177 179 177 192 220 257 253 230 225 255 283 255 270 290 335 349 348 347 2 8
239 235 230 206 214 223 223 221 214 215 212 208 208 209 205 199 196 193 182 169 173 178 183 193 199 213 228 236 237 215 236 246 267 278 261 251 273 318 330 340 2 10 21
224 227 268 229 225 202 238 229 217 214 212 209 209 209 206 197 189 184 185 182 190 195 189 176 167 206 203 217 223 238 250 269 275 264 241 245 258 303 328 356 14 23 24
230 220 268 213 214 207 224 228 220 213 211 209 210 207 204 197 192 194 196 199 197 198 205 191 209 219 218 217 224 255 257 265 258 241 239 231 254 277 310 349 10 16 15
230 200 227 210 207 204 225 221 218 213 209 207 207 204 202 195 194 201 199 198 203 218 226 220 218 210 212 219 234 271 164 188 217 216 209 230 255 265 276 285 309 336 349
231 219 204 220 220 228 227 219 216 209 210 209 205 202 197 195 194 201 202 199 213 222 215 210 222 221 217 227 236 237 183 197 203 209 223 249 259 271 264 266 285 286 295
235 233 224 218 216 225 220 211 211 208 210 206 206 199 193 193 197 204 201 204 226 222 225 222 230 233 240 245 251 236 206 212 195 214 240 269 282 283 273 252 257 270 282
235 242 233 234 222 219 216 208 206 209 206 203 201 195 193 194 198 207 205 206 223 219 222 233 236 240 261 267 249 237 240 240 201 194 232 277 300 300 257 246 252 258 279
223 242 229 234 230 216 219 210 205 207 209 202 200 194 194 191 197 203 202 195 209 218 220 226 239 252 251 259 223 201 202 214 233 221 195 176 127 143 193 207 246 278 297
212 222 237 229 232 226 223 210 208 207 206 204 200 197 193 191 184 191 196 197 205 219 220 230 243 238 209 187 195 213 243 256 258 246 210 198 203 205 244 268 281 295 305
Wind_Speed_850mb
65 69 72 68 68 61 52 43 41 46 51 48 41 38 40 44 49 52 52 52 51 47 43 40 36 33 29 28 28 28 27 27 26 22 20 23 26 27 29 29 28 26 23
66 74 74 72 71 65 55 46 42 50 53 50 44 43 42 44 47 50 51 50 48 42 37 35 32 28 26 27 28 26 24 22 17 12 12 16 20 22 24 26 26 23 24
65 76 76 74 70 65 58 50 44 49 53 52 49 47 46 45 45 50 49 47 44 37 34 31 27 24 25 26 26 23 21 17 12 8 10 10 13 16 20 24 27 26 24
67 76 78 77 72 66 59 52 47 47 50 52 52 52 49 46 45 49 47 44 40 36 34 30 26 23 23 23 23 21 20 13 8 8 6 7 9 14 19 24 27 26 25
68 74 76 76 74 69 61 53 47 48 51 52 55 54 52 48 47 49 47 43 37 34 33 29 25 21 20 20 20 20 18 12 7 0 1 3 6 12 17 24 28 29 27
63 70 73 73 70 67 63 55 48 48 51 54 55 54 53 50 49 50 46 41 37 34 30 27 24 20 17 19 19 19 17 15 7 2 3 4 5 11 17 24 28 28 29
63 72 74 73 70 65 60 55 49 48 49 52 55 54 53 52 51 50 45 39 36 32 27 23 22 21 18 18 19 18 15 15 9 1 3 3 6 12 20 26 29 31 32
67 77 76 74 70 65 60 54 50 49 48 51 54 54 51 51 51 51 45 41 36 28 23 20 21 22 20 18 17 16 14 11 8 4 2 3 7 13 21 25 29 33 37
67 77 76 73 68 64 60 55 49 48 49 51 53 52 50 50 51 50 46 40 34 27 23 20 20 21 19 18 16 14 11 7 7 6 1 2 8 16 21 23 28 35 41
65 70 74 75 71 65 60 55 49 46 47 50 50 49 49 50 50 48 44 39 33 28 24 21 21 20 19 17 16 12 11 6 3 1 4 2 7 13 17 24 31 40 46
45 53 61 70 71 69 63 56 52 48 46 45 46 48 49 50 48 46 41 37 32 27 24 22 21 20 19 15 12 10 10 5 3 3 2 1 7 12 17 25 37 42 47
41 48 51 58 69 70 68 63 56 54 52 49 48 48 47 46 44 41 38 34 30 26 23 21 20 21 21 16 11 9 7 3 5 4 4 5 9 13 18 30 39 47 49
44 53 51 55 61 71 71 71 66 59 53 49 47 47 47 45 42 39 37 33 27 22 19 18 19 24 24 14 8 6 6 4 4 5 10 7 12 13 21 32 42 47 46
34 57 60 58 62 66 73 73 69 65 61 56 51 49 49 47 42 38 33 28 22 20 18 18 21 24 21 14 10 6 2 6 13 11 6 18 13 16 22 33 42 44 39
35 47 72 69 68 64 74 75 71 69 66 57 53 49 48 45 41 37 31 26 22 19 19 21 22 22 16 12 9 8 5 16 12 7 19 17 18 16 24 31 36 36 35
24 49 60 67 65 66 73 75 74 71 66 60 54 51 49 46 39 33 29 25 22 20 22 21 20 18 13 11 6 10 16 13 13 12 20 16 15 16 22 28 32 34 30
20 37 54 62 69 74 73 76 75 72 68 63 56 53 49 46 40 33 27 24 23 20 19 17 15 12 12 9 7 15 11 19 18 16 12 20 14 12 18 28 32 26 27
32 23 40 46 57 74 72 76 76 74 69 62 56 52 48 46 40 36 30 25 18 15 14 13 14 12 14 17 14 12 15 18 17 17 16 16 9 11 19 25 22 21 23
30 26 22 67 48 59 81 78 79 76 69 63 58 52 48 46 41 38 36 27 22 17 13 13 15 11 12 13 15 16 13 17 19 17 17 14 10 11 13 14 17 19 22
32 22 19 68 67 78 75 84 83 79 72 63 58 51 48 49 45 38 37 32 21 19 15 15 17 18 17 16 12 11 14 20 17 16 16 13 12 11 10 7 10 15 18
32 41 29 67 71 86 90 93 91 84 74 66 59 51 50 51 47 41 36 32 23 19 18 21 19 18 19 18 15 6 2 7 12 15 15 15 16 16 13 8 9 12 14
33 39 58 58 78 85 92 95 93 82 75 66 58 54 51 54 49 40 35 27 22 22 22 22 18 19 22 19 12 12 10 8 16 17 14 16 17 21 20 16 13 14 14
34 38 57 63 61 67 93 96 86 76 77 70 65 59 59 57 49 42 31 23 25 21 21 19 21 22 22 16 20 16 10 12 19 15 14 16 21 22 20 22 22 20 22
38 44 44 59 58 57 82 87 85 83 83 74 67 60 60 60 53 47 34 27 24 26 26 23 26 24 23 18 19 22 25 14 11 10 16 14 12 12 13 20 25 22 23
51 48 44 45 59 60 69 78 79 80 79 75 75 65 66 61 56 47 35 31 23 29 28 25 25 24 19 15 14 13 10 10 12 13 13 12 3 7 8 11 14 19 28
65 65 50 53 55 64 73 80 84 87 86 80 77 79 73 69 64 49 41 33 25 31 30 22 21 20 13 15 14 11 11 11 12 6 12 17 14 7 8 13 20 27 36
Wind_Direction_850mb
179 182 180 179 178 179 189 193 187 180 172 169 170 168 159 157 159 159 154 151 150 149 148 149 147 144 134 128 127 126 123 126 122 107 90 74 64 55 41 38 33 31 23
178 180 180 179 179 180 190 191 187 182 179 179 182 173 165 162 162 161 157 154 155 152 151 150 147 142 136 132 131 132 128 133 125 105 93 79 65 50 40 32 30 27 21
183 177 180 179 181 184 189 188 187 185 183 182 182 175 170 167 164 165 160 158 160 158 156 153 148 146 141 139 140 140 142 144 125 94 80 85 64 47 35 24 20 15 9
185 180 182 181 182 186 187 187 187 186 186 185 183 177 174 171 169 168 163 162 163 161 159 154 150 149 145 143 145 149 148 147 125 99 85 83 60 38 24 14 8 3 360
186 184 184 182 184 187 187 187 186 184 186 186 184 180 177 175 173 169 166 165 164 161 156 152 150 147 148 148 155 160 161 164 150 342 255 123 63 32 16 3 357 359 353
188 189 187 185 186 188 188 188 187 185 185 186 186 184 180 177 175 171 169 168 167 165 161 157 153 151 157 157 167 171 178 184 188 107 127 168 61 27 4 356 354 355 353
190 191 189 187 188 190 190 189 188 186 184 185 185 184 182 178 175 172 171 170 167 165 158 156 154 153 164 168 176 182 191 194 198 160 130 129 48 14 358 355 355 355 351
193 189 189 188 189 192 192 191 189 186 184 183 184 183 182 179 176 174 175 174 170 169 164 158 153 156 171 179 183 184 189 196 211 212 123 70 30 2 353 357 357 353 350
193 190 188 189 190 193 194 193 191 187 185 183 185 184 182 181 178 178 180 181 180 181 170 162 159 167 176 183 185 175 168 152 139 148 199 345 12 355 353 353 356 353 349
189 193 192 190 192 194 194 194 192 190 189 185 186 186 185 183 182 183 185 185 188 185 174 170 172 175 178 179 172 169 154 141 107 326 277 20 338 337 347 352 354 353 345
190 192 196 195 195 194 194 192 191 191 191 189 186 188 187 185 184 186 189 190 190 186 182 179 181 175 176 172 163 149 153 129 16 348 228 301 307 326 342 354 354 351 348
196 200 202 200 199 197 195 193 192 192 190 191 190 189 188 187 186 187 188 187 189 188 185 184 184 172 170 158 153 162 174 175 42 20 203 252 314 326 337 354 357 354 349
228 208 202 205 207 200 199 195 193 194 194 194 193 192 190 190 190 188 187 187 190 192 190 186 176 173 172 169 178 178 171 213 209 245 231 303 296 323 343 355 356 349 349
255 226 212 205 210 207 203 202 198 195 196 195 195 197 195 194 193 192 188 191 193 192 187 174 170 166 170 169 186 185 204 270 242 228 257 299 292 318 342 347 346 344 347
236 237 217 212 209 211 208 206 203 202 201 200 200 200 202 200 199 195 193 195 196 186 172 166 164 164 164 180 205 201 261 262 239 232 301 286 286 314 332 344 340 348 354
245 209 216 219 214 214 215 210 209 208 206 203 203 205 204 202 202 199 200 197 193 179 168 167 164 168 166 167 209 246 254 225 248 293 294 268 277 314 337 345 350 354 358
248 229 223 222 213 220 219 213 212 211 208 206 206 207 205 201 199 198 198 197 189 184 180 177 179 177 192 220 257 253 230 225 255 283 255 270 290 335 349 348 347 2 8
239 235 230 206 214 223 223 221 214 215 212 208 208 209 205 199 196 193 182 169 173 178 183 193 199 213 228 236 237 215 236 246 267 278 261 251 273 318 330 340 2 10 21
224 227 268 229 225 202 238 229 217 214 212 209 209 209 206 197 189 184 185 182 190 195 189 176 167 206 203 217 223 238 250 269 275 264 241 245 258 303 328 356 14 23 24
230 220 268 213 214 207 224 228 220 213 211 209 210 207 204 197 192 194 196 199 197 198 205 191 209 219 218 217 224 255 257 265 258 241 239 231 254 277 310 349 10 16 15
230 200 227 210 207 204 225 221 218 213 209 207 207 204 202 195 194 201 199 198 203 218 226 220 218 210 212 219 234 271 164 188 217 216 209 230 255 265 276 285 309 336 349
231 219 204 220 220 228 227 219 216 209 210 209 205 202 197 195 194 201 202 199 213 222 215 210 222 221 217 227 236 237 183 197 203 209 223 249 259 271 264 266 285 286 295
235 233 224 218 216 225 220 211 211 208 210 206 206 199 193 193 197 204 201 204 226 222 225 222 230 233 240 245 251 236 206 212 195 214 240 269 282 283 273 252 257 270 282
235 242 233 234 222 219 216 208 206 209 206 203 201 195 193 194 198 207 205 206 223 219 222 233 236 240 261 267 249 237 240 240 201 194 232 277 300 300 257 246 252 258 279
223 242 229 234 230 216 219 210 205 207 209 202 200 194 194 191 197 203 202 195 209 218 220 226 239 252 251 259 223 201 202 214 233 221 195 176 127 143 193 207 246 278 297
212 222 237 229 232 226 223 210 208 207 206 204 200 197 193 191 184 191 196 197 205 219 220 230 243 238 209 187 195 213 243 256 258 246 210 198 203 205 244 268 281 295 305